Preview of NWS' New Version of Forecast
This preview is not operational and should not be used for support decisions.

Regional Weather Roundup (RWR)

Issued by Philadelphia/Mt Holly (PHI)

                            
000
ASUS41 KPHI 240912
RWRPHI

REGIONAL WEATHER ROUNDUP
NATIONAL WEATHER SERVICE MOUNT HOLLY NJ
500 AM EDT FRI MAY 24 2019

NOTE:  "FAIR" INDICATES FEW OR NO CLOUDS BELOW 12,000 FEET WITH NO
SIGNIFICANT WEATHER AND/OR OBSTRUCTIONS TO VISIBILITY.

 * = STATION DOES NOT REPORT PRECIPITATION (E.G. RAIN, SNOW, ETC.) 
        OR FOG.

NJZ015>026-241000-
SOUTHERN NEW JERSEY
  
CITY           SKY/WX    TMP DP  RH WIND       PRES   REMARKS
POMONA         MOCLDY    71  67  87 W12       29.85S                  
WILDWOOD*      FAIR     N/A N/A N/A W7        29.89R                  
MILLVILLE      MOCLDY    69  67  93 W8        29.87R                  
WRIGHTSTOWN    FAIR      68  63  84 W7        29.82R                  
MOUNT HOLLY    FAIR      67  64  90 W6        29.85R                  
TRENTON        FAIR      68  62  81 W7        29.84S                  

$$
NJZ001>014-241000-
NORTHERN NEW JERSEY
  
CITY           SKY/WX    TMP DP  RH WIND       PRES   REMARKS
SUSSEX         MOCLDY    60  57  89 VRB5      29.84R                  
ANDOVER*         N/A     59  55  87 CALM      29.85R                  
MORRISTOWN     FAIR      64  55  72 W3        29.82R                  
NEWARK         FAIR      68  60  75 W7        29.81R                  
TETERBORO      FAIR      68  58  70 W7        29.79R                  
CALDWELL       FAIR      65  61  87 W5        29.82R                  
SOMERVILLE     FAIR      65  58  78 VRB3      29.82R                  
ALLAIRE*       FAIR      66  64  93 W6        29.84R                  
TOMS RIVER*    FAIR      67  65  93 W8        29.85R                  

$$
PAZ043-044-047-054-055-060>062-066>071-241000-
EASTERN PENNSYLVANIA
  
CITY           SKY/WX    TMP DP  RH WIND       PRES   REMARKS
PHILADELPHIA   FAIR      69  63  81 W8        29.87R                  
NORTH PHILA    FAIR      69  62  78 W8        29.87R                  
BLUE BELL*     FAIR      66  62  86 SW6       29.87R                  
DOYLESTOWN     FAIR      66  58  75 NW8       29.86R                  
QUAKERTOWN*    CLEAR     66  57  72 VRB3      29.89                   
PERKASIE*      FAIR      66  59  77 NW9       29.89R                  
POTTSTOWN      FAIR      64  60  87 VRB6      29.90R                  
LANCASTER      FAIR      68  56  65 NW13      29.91R                  
COATESVILLE    FAIR      66  61  82 NW14      29.92R                  
WEST CHESTER   FAIR      64  61  88 W3        29.90R                  
READING        FAIR      64  58  80 NW8       29.89R                  
ALLENTOWN      FAIR      69  49  48 NW9G20    29.87R                  
QN CITY/ALNTWN FAIR      68  52  56 NW7G16    29.90R                  
MOUNT POCONO   FAIR      57  48  72 NW16      29.88R                  
LEHIGHTON      FAIR      64  48  55 W5        29.90R                  
WILKES BARRE   FAIR      62  51  67 NW10G20   29.89R                  

$$
DEZALL-MDZ008-012-015-019-020-241000-
DELAWARE AND EASTERN MARYLAND
  
CITY           SKY/WX    TMP DP  RH WIND       PRES   REMARKS
WILMINGTON     FAIR      70  62  76 W10       29.89R                  
DOVER          PTCLDY    71  69  93 W3        29.88R                  
CHESWOLD         N/A     70  68  94 W6        29.90R                  
GEORGETOWN     FAIR      73  71  93 W6        29.89S                  
EASTON         FAIR      74  70  86 W6        29.94R                  
STEVENSVILLE   FAIR      72  68  88 W10       29.91R                  
PATUXENT       FAIR      74  72  93 SW12      29.91S                  
OCEAN CITY     FAIR      73  71  93 W10       29.89F                  
WALLOPS ISLAND FAIR      77  72  84 SW12      29.92S                  
CAMBRIDGE      CLEAR     72  72 100 W5        29.91R                  
SALISBURY      FAIR      72  72 100 SW8       29.90F                  

$$
PAZ001-021-NYZ056-072-MDZ011-DCZ001-241000-
OTHER NEARBY LOCATIONS
  
CITY           SKY/WX    TMP DP  RH WIND       PRES   REMARKS
HARRISBURG     FAIR      66  54  65 W7        29.93R                  
STATE COLLEGE  FAIR      60  47  64 N12       30.02R                  
WILLIAMSPORT   FAIR      62  46  55 NW10      29.94R                  
BINGHAMTON     FAIR      54  45  71 NW13G21   29.89R                  
NEW YORK CITY  FAIR      68  59  73 VRB7      29.82R                  
BALTIMORE      FAIR      73  65  75 NW8       29.91R                  
WASHINGTON DC  FAIR      70  68  93 S6        29.93R                  

$$